Satellite: CP3
Catalog number: 31128
Epoch time:      07311.67017624
Element set:    0176
Inclination:      098.0684 deg
RA of node:       019.1866 deg
Eccentricity:    0.0101987
Arg of perigee:   303.1150 deg
Mean anomaly:     056.0315 deg
Mean motion:   14.51880109 rev/day
Decay rate:       -4.9e-07 rev/day^2
Epoch rev:           02964
Checksum:              284

Satellite: LIBERT
Catalog number: 31129
Epoch time:      07312.76039171
Element set:     500
Inclination:      098.0696 deg
RA of node:       020.2540 deg
Eccentricity:    0.0100931
Arg of perigee:   299.5046 deg
Mean anomaly:     059.6114 deg
Mean motion:   14.51973074 rev/day
Decay rate:       3.35e-06 rev/day^2
Epoch rev:            2978
Checksum:              281

/EX
SB KEPS @ AMSAT  $ORB07313.W
Orbital Elements  07313.WEATHER

HR AMSAT ORBITAL ELEMENTS FOR WEATHER SATELLITES
FROM WA5QGD FORT WORTH,TX November 9, 2007
Send Subscribe/unsubscribe to KEPS at 
http://www.amsat.org/mailman/listinfo/keps
BID: ORB07313.W
TO ALL RADIO AMATEURS BT

Satellite: NOAA-10
Catalog number: 16969
Epoch time:      07311.93900633
Element set:    0881
Inclination:      098.7404 deg
RA of node:       329.1729 deg
Eccentricity:    0.0013099
Arg of perigee:   107.1186 deg
Mean anomaly:     253.1426 deg
Mean motion:   14.27340087 rev/day
Decay rate:        8.8e-07 rev/day^2
Epoch rev:           09973
Checksum:              319

Satellite: NOAA-11
Catalog number: 19531
Epoch time:      07311.83131549
Element set:    0913
Inclination:      098.8089 deg
RA of node:       039.1821 deg
Eccentricity:    0.0011600
Arg of perigee:   346.1703 deg
Mean anomaly:     013.9151 deg
Mean motion:   14.14853614 rev/day
Decay rate:      -2.79e-06 rev/day^2
Epoch rev:           98646
Checksum:              297

Satellite: NOAA-12
Catalog number: 21263
Epoch time:      07311.91153044
Element set:    0420
Inclination:      098.7616 deg
RA of node:       308.9738 deg
Eccentricity:    0.0013221
Arg of perigee:   053.8505 deg
Mean anomaly:     306.3876 deg
Mean motion:   14.25500582 rev/day
Decay rate:       -7.8e-07 rev/day^2
Epoch rev:           85672
Checksum:              292

Satellite: MET-3/5
Catalog number: 21655
Epoch time:      07311.90672137
Element set:    0369
Inclination:      082.5533 deg
RA of node:       261.3924 deg
Eccentricity:    0.0012316
Arg of perigee:   205.6801 deg
Mean anomaly:     154.3711 deg
Mean motion:   13.17013054 rev/day
Decay rate:        5.1e-07 rev/day^2
Epoch rev:           78032
Checksum:              264

Satellite: MET-2/21
Catalog number: 22782
Epoch time:      07311.48036472
Element set:    0980
Inclination:      082.5447 deg
RA of node:       288.2349 deg
Eccentricity:    0.0022016
Arg of perigee:   190.5931 deg
Mean anomaly:     169.4769 deg
Mean motion:   13.83620037 rev/day
Decay rate:       -4.3e-07 rev/day^2
Epoch rev:           71633
Checksum:              308

Satellite: OKEAN-4
Catalog number: 23317
Epoch time:      07312.75234475
Element set:     418
Inclination:      082.5384 deg
RA of node:       161.6772 deg
Eccentricity:    0.0023451
Arg of perigee:   133.6833 deg
Mean anomaly:     226.6348 deg
Mean motion:   14.82547663 rev/day
Decay rate:       1.60e-06 rev/day^2
Epoch rev:           70547
Checksum:              302

Satellite: NOAA-14
Catalog number: 23455
Epoch time:      07311.75161321
Element set:    0889
Inclination:      098.9751 deg
RA of node:       018.5891 deg
Eccentricity:    0.0010047
Arg of perigee:   058.8711 deg
Mean anomaly:     301.3446 deg
Mean motion:   14.13728515 rev/day
Decay rate:        7.2e-07 rev/day^2
Epoch rev:           66292
Checksum:              303

Satellite: SICH-1
Catalog number: 23657
Epoch time:      07311.67677484
Element set:    0218
Inclination:      082.5253 deg
RA of node:       303.6226 deg
Eccentricity:    0.0025474
Arg of perigee:   129.0414 deg
Mean anomaly:     231.3076 deg
Mean motion:   14.81523870 rev/day
Decay rate:       1.46e-06 rev/day^2
Epoch rev:           65727
Checksum:              295

Satellite: NOAA-15
Catalog number: 25338
Epoch time:      07311.79630899
Element set:    0233
Inclination:      098.5413 deg
RA of node:       304.5063 deg
Eccentricity:    0.0010272
Arg of perigee:   336.0170 deg
Mean anomaly:     024.0497 deg
Mean motion:   14.24671472 rev/day
Decay rate:       1.16e-06 rev/day^2
Epoch rev:           49313
Checksum:              283

Satellite: RESURS
Catalog number: 25394
Epoch time:      07312.72850582
Element set:     780
Inclination:      098.4207 deg
RA of node:       001.4010 deg
Eccentricity:    0.0002087
Arg of perigee:   103.6113 deg
Mean anomaly:     256.5298 deg
Mean motion:   14.24148046 rev/day
Decay rate:       -3.1e-07 rev/day^2
Epoch rev:           48492
Checksum:              269

Satellite: FENGYUN1
Catalog number: 25730
Epoch time:      07312.86192980
Element set:     263
Inclination:      098.7052 deg
RA of node:       291.3513 deg
Eccentricity:    0.0020647
Arg of perigee:   071.6577 deg
Mean anomaly:     288.6837 deg
Mean motion:   14.07638765 rev/day
Decay rate:       4.49e-06 rev/day^2
Epoch rev:           43782
Checksum:              331

Satellite: OKEAN-0
Catalog number: 25860
Epoch time:      07312.46914449
Element set:     205
Inclination:      097.7383 deg
RA of node:       308.0349 deg
Eccentricity:    0.0000549
Arg of perigee:   051.0547 deg
Mean anomaly:     309.0709 deg
Mean motion:   14.73483374 rev/day
Decay rate:        6.0e-07 rev/day^2
Epoch rev:           44674
Checksum:              300

Satellite: NOAA-16
Catalog number: 26536
Epoch time:      07311.92057566
Element set:    0676
Inclination:      099.1351 deg
RA of node:       291.4911 deg
Eccentricity:    0.0011139
Arg of perigee:   127.1741 deg
Mean anomaly:     233.0422 deg
Mean motion:   14.12458901 rev/day
Decay rate:       2.53e-06 rev/day^2
Epoch rev:           36739
Checksum:              292

Satellite: NOAA-17
Catalog number: 27453
Epoch time:      07311.79788196
Element set:    0671
Inclination:      098.5659 deg
RA of node:       017.5470 deg
Eccentricity:    0.0012336
Arg of perigee:   040.5579 deg
Mean anomaly:     319.6530 deg
Mean motion:   14.23922483 rev/day
Decay rate:        8.7e-07 rev/day^2
Epoch rev:           27915
Checksum:              336

Satellite: NOAA-18
Catalog number: 28654
Epoch time:      07311.76839045
Element set:    0191
Inclination:      098.8427 deg
RA of node:       250.7211 deg
Eccentricity:    0.0013659
Arg of perigee:   220.4570 deg
Mean anomaly:     139.5614 deg
Mean motion:   14.11107512 rev/day
Decay rate:       -4.5e-07 rev/day^2
Epoch rev:           12710
Checksum:              283

/EX
SB KEPS @ AMSAT  $ORB07313.M
Orbital Elements  07313.MISC

HR AMSAT ORBITAL ELEMENTS FOR MANNED AND MISCELLANEOUS SATELLITES
FROM WA5QGD FORT WORTH,TX November 9, 2007
Send Subscribe/unsubscribe to KEPS at 
http://www.amsat.org/mailman/listinfo/keps
BID: ORB07313.M
TO ALL RADIO AMATEURS BT

Satellite: HUBBLE
Catalog number: 20580
Epoch time:      07311.43322260
Element set:    0008
Inclination:      028.4688 deg
RA of node:       335.9916 deg
Eccentricity:    0.0003877
Arg of perigee:   177.8644 deg
Mean anomaly:     182.1959 deg
Mean motion:   15.00299464 rev/day
Decay rate:       3.40e-06 rev/day^2
Epoch rev:           76149
Checksum:              309

Satellite: UARS
Catalog number: 21701
Epoch time:      07311.76101465
Element set:    0226
Inclination:      056.9726 deg
RA of node:       050.3100 deg
Eccentricity:    0.0095398
Arg of perigee:   108.9850 deg
Mean anomaly:     252.1573 deg
Mean motion:   15.49551725 rev/day
Decay rate:      3.873e-05 rev/day^2
Epoch rev:           88799
Checksum:              311

Satellite: PO-34
Catalog number: 25520
Epoch time:      07311.91882082
Element set:    0862
Inclination:      028.4601 deg
RA of node:       226.7217 deg
Eccentricity:    0.0005025
Arg of perigee:   025.1698 deg
Mean anomaly:     334.9140 deg
Mean motion:   15.17077880 rev/day
Decay rate:       4.13e-06 rev/day^2
Epoch rev:           49937
Checksum:              296

Satellite: ISS
Catalog number: 25544
Epoch time:      07312.70444825
Element set:     316
Inclination:      051.6404 deg
RA of node:       078.7401 deg
Eccentricity:    0.0001398
Arg of perigee:   156.5713 deg
Mean anomaly:     345.2148 deg
Mean motion:   15.75953300 rev/day
Decay rate:     1.3463e-04 rev/day^2
Epoch rev:           51357
Checksum:              283

Satellite: OO-38
Catalog number: 26063
Epoch time:      07311.65070322
Element set:      54
Inclination:      100.2236 deg
RA of node:       340.7605 deg
Eccentricity:    0.0037257
Arg of perigee:   116.0097 deg
Mean anomaly:     244.4930 deg
Mean motion:   14.35818912 rev/day
Decay rate:       -2.6e-07 rev/day^2
Epoch rev:           40763
Checksum:              269

Satellite: UWE-1
Catalog number: 28892
Epoch time:      07312.72709210
Element set:     893
Inclination:      098.1152 deg
RA of node:       206.3619 deg
Eccentricity:    0.0017880
Arg of perigee:   024.1436 deg
Mean anomaly:     336.0602 deg
Mean motion:   14.59557883 rev/day
Decay rate:        6.0e-07 rev/day^2
Epoch rev:           10829
Checksum:              300

Satellite: CO-58
Catalog number: 28895
Epoch time:      07311.67306030
Element set:    0869
Inclination:      098.1162 deg
RA of node:       205.5966 deg
Eccentricity:    0.0018607
Arg of perigee:   027.4784 deg
Mean anomaly:     332.7419 deg
Mean motion:   14.59601164 rev/day
Decay rate:       1.28e-06 rev/day^2
Epoch rev:           10802
Checksum:              317

